Location: Newark
(30.1000°N, 109.4667°E)
Time: 02:12:01
(UTC+00:00)

Vanguard 2 Rocket - Pass Details

Date: 26 February 2020
Orbit: 554 x 3326 km, 32.9° (Epoch: 08 April)

Event Time Altitude Azimuth Distance (km) Brightness Sun altitude
Rises 12:12:20 0° 258° (WSW) 7,292 12.9 -21.1°
Reaches altitude 10° 12:17:18 10° 259° (WSW) 6,278 12.2 -22.1°
Maximum altitude 12:37:29 85° 349° (N) 2,749 9.1 -26.5°
Enters shadow 12:44:39 39° 75° (ENE) 3,127 9.1 -28.0°
